Location: Casco Volunteer Fire Department
(44.5576°N, 87.6146°W)
Time: 05:11:22
(UTC+00:00)

NOSS 3-2 (A) - Pass Details

Date: 22 January 2026
Orbit: 669 x 1534 km, 63.4° (Epoch: 2 January)

Event Time Altitude Azimuth Distance (km) Brightness Sun altitude
Rises 12:43:28 0° 234° (SW) 3,077 5.8 -6.6°
Reaches altitude 10° 12:45:43 10° 240° (WSW) 2,219 5.0 -6.2°
Maximum altitude 12:50:36 49° 316° (NW) 1,031 3.4 -5.4°
Drops below altitude 10° 12:56:26 10° 31° (NNE) 2,655 5.9 -4.4°
Sets 12:59:22 0° 37° (NE) 3,746 6.7 -4.0°
